Location: Laas
(43.4693°N, 0.3073°E)
Time: 15:21:41
(UTC+00:00)

FALCON 9 DEB - Pass Details

Date: 25 October 2020
Orbit: 383 x 397 km, 53.0° (Epoch: 23 November)

Event Time Altitude Azimuth Distance (km) Brightness Sun altitude
Rises 18:28:56 0° 240° (WSW) 2,304 7.9 -16.9°
Reaches altitude 10° 18:31:01 10° 243° (WSW) 1,447 6.7 -17.2°
Maximum altitude 18:34:14 68° 326° (NW) 434 3.1 -17.8°
Enters shadow 18:35:01 46° 31° (NNE) 546 3.3 -18.0°
